Hourly Data Report for October 31, 2013

All times are specified in Local Standard Time (LST). Add 1 hour to adjust for Daylight Saving Time where and when it is observed.

GRISE FIORD CLIMATE
NUNAVUT

76°25'22.040" N
82°54'08.020" W
44.50 m
2402351
71971
NGC

Download Data

Hourly Data (October 2013)
Hourly Data Report for October 31, 2013
Temp Definition
°C
Dew Point Temp Definition
°C
Rel Hum Definition
%
Wind Dir Definition
10's deg

Wind Spd Definition
km/h
Visibility Definition
km
Stn Press Definition
kPa
Hmdx Definition


Wind Chill Definition


Weather Definition


TIME
00:00 -16.1 -17.7 87 26 13   100.92   -24 LegendNANA
01:00 -15.9 -17.9 85 12 7   100.93   -21 LegendNANA
02:00 -16.0 -18.2 83 26 11   100.95   -23 LegendNANA
03:00 -16.0 -18.3 82 26 11   100.98   -23 LegendNANA
04:00 -16.0 -18.4 82 30 2   101.01   -17 LegendNANA
05:00 -16.1 -18.7 80 34 2   101.03   -18 LegendNANA
06:00 -16.2 -18.7 81 35 2   101.04   -18 LegendNANA
07:00 -16.1 -18.6 81 1 2   101.06   -18 LegendNANA
08:00 -16.3 -18.7 82 35 9   101.06   -22 LegendNANA
09:00 -16.2 -18.8 80 35 6   101.06   -21 LegendNANA
10:00 -16.4 -19.0 80 2 7   101.08   -21 LegendNANA
11:00 -16.4 -18.9 81 1 6   101.07   -21 LegendNANA
12:00 -16.5 -18.9 82 1 11   101.07   -23 LegendNANA
13:00 -16.2 -18.7 81 3 6   101.08   -21 LegendNANA
14:00 -16.2 -18.7 81 36 4   101.10   -19 LegendNANA
15:00 -16.2 -18.7 81 32 9   101.12   -22 LegendNANA
16:00 -16.6 -19.2 80 32 7   101.16   -22 LegendNANA
17:00 -17.0 -19.7 80 34 11   101.15   -24 LegendNANA
18:00 -17.2 -20.0 79 36 13   101.16   -25 LegendNANA
19:00 -17.5 -20.1 80 34 11   101.16   -25 LegendNANA
20:00 -17.3 -19.9 80 1 9   101.15   -24 LegendNANA
21:00 -18.0 -21.0 77 4 17   101.12   -27 LegendNANA
22:00 -17.3 -19.8 81 4 17   101.11   -26 LegendNANA
23:00 -17.3 -20.2 78 4 11   101.09   -24 LegendNANA

Notes on Data Quality.

Legend

  • E = Estimated
  • M = Missing
  • NA = Not Available
  • ‡ = Partner data that is not subject to review by the National Climate Archives
Date modified: